Altus AFB, OK

7:58 AM CDT on October 16, 2019 (GMT -0500)
Altus Air Force Base

Weather History for KLTS - August, 2019

Change the Weather History Date:

Friday, August 9, 2019

  Actual Average Record
Temperature  
Mean Temperature 88 °F -  
Max Temperature 98 °F 93 °F 108 °F (2011)
Min Temperature 77 °F 70 °F 66 °F (1997)
Cooling Degree Days 24    
Growing Degree Days 38 (Base 50)    
Moisture  
Dew Point 67 °F    
Average Humidity 54    
Maximum Humidity 72    
Minimum Humidity 32    
Precipitation  
Precipitation 0.00 in - - ()
Sea Level Pressure  
Sea Level Pressure 29.85 in    
Wind  
Wind Speed 7 mph (ESE)    
Max Wind Speed 13 mph    
Max Gust Speed 18 mph    
Visibility 10 miles    
Events      
Averages and records for this station are not official NWS values.
T = Trace of Precipitation, MM = Missing Value Source: NWS Daily Summary

Daily Weather History Graph

Daily Weather History Graph

Search for Another Location

Airport or City:

Astronomy

Aug. 09, 2019 Rise Set
Actual Time 6:53 AM CDT 8:31 PM CDT
Civil Twilight 6:25 AM CDT 8:58 PM CDT
Nautical Twilight 5:53 AM CDT 9:31 PM CDT
Astronomical Twilight 5:18 AM CDT 10:05 PM CDT
Moon 4:11 PM CDT (8/9) 1:52 AM CDT (8/9)
Length of Visible Light 14h 32m
Length of Day
13h 38m
Waxing Gibbous, 70% of the Moon is Illuminated
Aug 9
Waxing Gibbous
Aug 15
Full
Aug 23
Last Quarter
Aug 30
New
Sep 5
First Quarter

Hourly Weather History & Observations

Time (CDT) Temp. Heat Index Dew Point Humidity Pressure Visibility Wind Dir Wind Speed Gust Speed Precip Events Conditions
12:56 AM 80.8 °F 83.3 °F 67.5 °F 64% 29.83 in 10.0 mi SSE 8.1 mph - N/A   Clear
1:56 AM 80.8 °F 83.5 °F 67.8 °F 65% 29.83 in 10.0 mi ESE 5.8 mph - N/A   Scattered Clouds
2:56 AM 80.8 °F 83.5 °F 67.8 °F 65% 29.81 in 10.0 mi SE 6.9 mph - N/A   Scattered Clouds
3:56 AM 80.6 °F 83.2 °F 68.0 °F 65% 29.88 in 10.0 mi East 8.1 mph - N/A   Scattered Clouds
4:56 AM 80.6 °F 83.9 °F 69.8 °F 70% 29.88 in 10.0 mi Variable 3.5 mph - N/A   Scattered Clouds
5:56 AM 78.8 °F - 68.0 °F 69% - 10.0 mi Variable 5.8 mph - N/A   Scattered Clouds
6:56 AM 77.7 °F - 68.0 °F 72% 29.85 in 10.0 mi Calm Calm - N/A   Mostly Cloudy
7:56 AM 78.8 °F - 68.5 °F 71% 29.89 in 10.0 mi ENE 4.6 mph - N/A   Scattered Clouds
8:56 AM 82.6 °F 85.7 °F 68.2 °F 62% 29.90 in 10.0 mi ENE 4.6 mph - N/A   Overcast
9:56 AM 82.8 °F 85.5 °F 67.8 °F 60% 29.91 in 10.0 mi East 9.2 mph - N/A   Mostly Cloudy
10:20 AM 82.4 °F 85.4 °F 68.0 °F 62% 29.89 in 10.0 mi East 8.1 mph - N/A   Light Drizzle
10:56 AM 85.5 °F 88.8 °F 68.4 °F 56% 29.89 in 10.0 mi ESE 6.9 mph - 0.00 in   Mostly Cloudy
11:56 AM 88.7 °F 92.2 °F 67.6 °F 50% 29.89 in 10.0 mi ESE 9.2 mph - N/A   Mostly Cloudy
12:56 PM 90.9 °F 94.8 °F 68.4 °F 47% 29.87 in 10.0 mi SE 10.4 mph 18.4 mph N/A   Scattered Clouds
1:56 PM 92.5 °F 96.9 °F 68.0 °F 45% 29.87 in 10.0 mi SE 10.4 mph - N/A   Scattered Clouds
2:56 PM 95.7 °F 97.7 °F 64.4 °F 35% 29.85 in 10.0 mi SE 4.6 mph - N/A   Partly Cloudy
3:56 PM 95.4 °F 98.1 °F 65.7 °F 37% 29.84 in 10.0 mi South 4.6 mph - N/A   Mostly Cloudy
4:56 PM 99.0 °F 102.9 °F 66.4 °F 34% 29.80 in 10.0 mi SE 9.2 mph - N/A   Mostly Cloudy
5:56 PM 100.0 °F 103.6 °F 65.7 °F 32% 29.80 in 10.0 mi SE 10.4 mph - N/A   Mostly Cloudy
6:56 PM 98.4 °F 101.3 °F 65.1 °F 33% 29.79 in 10.0 mi SE 12.7 mph - N/A   Mostly Cloudy
9:56 PM 86.5 °F 87.8 °F 64.4 °F 47% 29.82 in 10.0 mi SE 9.2 mph - N/A   Scattered Clouds
10:56 PM 82.9 °F 84.6 °F 64.6 °F 54% 29.83 in 10.0 mi SSE 6.9 mph - N/A   Scattered Clouds
11:56 PM 83.5 °F 84.5 °F 62.8 °F 50% 29.82 in 10.0 mi SE 9.2 mph - N/A   Scattered Clouds